Location: USNO
(38.9242°N, 77.0663°W)
Time: 20:20:25
(UTC-04:00)

Envisat - Pass Details

Date: 07 October 2017
Orbit: 764 x 766 km, 98.2° (Epoch: 17 October)

Event Time Altitude Azimuth Distance (km) Brightness Sun altitude
Exits shadow 19:38:11 15° 76° (ENE) 1,974 4.5 -11.9°
Maximum altitude 19:39:06 16° 63° (ENE) 1,935 4.6 -12.1°
Drops below altitude 10° 19:42:03 10° 27° (NNE) 2,308 5.2 -12.7°
Sets 19:45:13 0° 6° (N) 3,239 6.2 -13.3°
